NI4CE-11 Weather Reports


Display with metric or nautical units.
time (UTC)temp
F
wind
direction
speed
MPH
gust
MPH
rain 1hr
in
rain 24hr
in
rain mn
in
humidity
%
barometer
mb
20260510123829 83 358 0.0 0.0 0.00 0.00 0.00 100 1016.6
20260510123421 81 358 0.0 0.0 0.00 0.00 0.00 100 1016.7
20260510123049 83 358 0.0 0.0 0.00 0.00 0.00 100 1016.6
20260510122921 83 358 0.0 0.0 0.00 0.00 0.00 100 1016.6
20260510122421 78 358 0.0 0.0 0.00 0.00 0.00 100 1016.5
20260510122116 80 358 0.0 0.0 0.00 0.00 0.00 100 1016.5
20260510121921 80 358 0.0 0.0 0.00 0.00 0.00 100 1016.5
20260510121549 82 358 0.0 0.0 0.00 0.00 0.00 100 1016.4
20260510121421 82 358 0.0 0.0 0.00 0.00 0.00 100 1016.4
20260510120921 80 358 0.0 0.0 0.00 0.00 0.00 100 1016.4
20260510120421 78 358 0.0 0.0 0.00 0.00 0.00 100 1016.3
20260510120028 79 358 0.0 0.0 0.00 0.00 0.00 100 1016.2
20260510115921 79 358 0.0 0.0 0.00 0.00 0.00 100 1016.2
20260510115421 76 358 0.0 0.0 0.00 0.00 0.00 100 1016.1
20260510114921 75 358 0.0 0.0 0.00 0.00 0.00 100 1016.1
20260510114421 78 358 0.0 0.0 0.00 0.00 0.00 100 1016.0
20260510114052 76 358 0.0 0.0 0.00 0.00 0.00 100 1015.9
20260510113921 76 358 0.0 0.0 0.00 0.00 0.00 100 1015.9
20260510113543 75 358 0.0 0.0 0.00 0.00 0.00 100 1015.8
20260510113421 75 358 0.0 0.0 0.00 0.00 0.00 100 1015.8
20260510113034 78 358 0.0 0.0 0.00 0.00 0.00 100 1015.8
20260510112921 78 358 0.0 0.0 0.00 0.00 0.00 100 1015.8
20260510112421 79 358 0.0 0.0 0.00 0.00 0.00 100 1015.7
20260510111921 77 358 0.0 0.0 0.00 0.00 0.00 100 1015.6
20260510111421 75 358 0.0 0.0 0.00 0.00 0.00 100 1015.4
20260510111115 78 358 0.0 0.0 0.00 0.00 0.00 100 1015.3
20260510110921 78 358 0.0 0.0 0.00 0.00 0.00 100 1015.3
20260510110610 77 358 0.0 0.0 0.00 0.00 0.00 100 1015.1
20260510110421 77 358 0.0 0.0 0.00 0.00 0.00 100 1015.1
20260510105921 77 358 0.0 0.0 0.00 0.00 0.00 100 1015.0
20260510105421 78 358 0.0 0.0 0.00 0.00 0.00 100 1014.9
20260510104921 77 358 0.0 0.0 0.00 0.00 0.00 100 1014.8
20260510104421 76 358 0.0 0.0 0.00 0.00 0.00 100 1014.8
20260510103921 78 358 0.0 0.0 0.00 0.00 0.00 100 1014.6